Tracking 35275 objects as of 9-Sep-2026
HD Live streaming from Space Station
objects crossing your sky now

CZ-2D DEB

Track CZ-2D DEB now!
10-day predictions


NORAD ID: 44609
Int'l Code: 2017-060B
Launch date: October 9, 2017
Source: People's Republic of China (PRC)
Launch site: Jiuquan Satellite Launch Center, China (JSC)

Note: This is SATELLITE DEBRIS
Your satellite tracking list
Your tracking list is empty




NASA's NSSDC Master Catalog

Two Line Element Set (TLE):
1 44609U 17060B   26251.98397911  .00004669  00000-0  36500-3 0  9992
2 44609  97.5366 267.8503 0026371  30.4678 329.8072 15.01276918477750
Source of the keplerian elements: AFSPC